Lapse_Rate
6.0 6.9 7.1 5.6 4.0 4.1 3.8 3.4 2.7 2.6 2.6 2.5 2.2 1.5 1.1 0.4 -0.6 1.0 2.9 3.4 3.5 4.5 3.6 6.2 6.5 5.9 5.9 6.0 5.7 5.9 6.5 6.5 6.5 6.5 6.5 6.2 6.5 5.7 5.4 6.1 6.4 6.4 5.4 3.6 4.4
7.0 6.0 5.9 6.0 4.5 3.9 3.6 3.5 3.4 3.0 3.0 2.8 2.5 1.9 1.3 0.6 -0.3 0.5 2.1 5.8 5.0 4.1 5.7 6.0 6.4 6.4 5.2 5.5 5.1 6.1 6.5 6.5 6.5 6.5 6.5 6.1 5.8 5.3 6.0 5.7 5.7 5.3 4.1 4.5 4.6
7.7 7.0 5.5 4.9 4.6 4.8 4.2 3.3 3.4 3.4 3.5 3.4 2.8 2.4 1.9 1.3 3.0 6.8 4.2 4.6 4.0 2.7 3.6 5.7 7.3 7.1 5.4 5.5 5.5 5.6 6.5 6.5 6.3 6.2 6.1 5.8 5.6 4.6 6.3 6.5 5.9 5.7 3.7 4.0 4.5
7.6 7.4 6.7 4.9 4.4 4.0 4.3 3.9 3.6 3.5 3.6 3.6 3.3 3.0 2.4 2.3 6.5 6.9 4.9 4.2 3.7 3.9 4.3 6.9 7.0 6.2 6.5 6.5 5.7 6.5 6.3 6.4 6.3 6.4 6.3 6.5 5.2 5.9 5.9 5.5 6.4 6.4 4.9 4.4 4.6
7.2 6.7 7.1 7.0 5.5 4.8 3.9 3.5 3.5 3.5 3.5 3.8 3.7 3.7 3.5 5.8 5.5 5.0 5.4 4.2 4.1 6.1 6.3 7.1 6.5 6.1 6.5 6.4 5.9 6.5 6.5 6.3 6.3 6.2 6.1 5.8 6.1 5.7 5.3 4.6 4.9 5.6 4.7 4.7 4.0
7.7 7.4 6.1 6.1 6.1 5.3 3.6 3.2 2.8 3.1 3.3 3.6 4.2 4.2 5.0 6.6 4.9 6.8 6.7 6.7 7.6 7.4 7.1 7.0 6.8 6.6 6.3 6.4 6.5 6.3 6.3 6.3 6.2 6.1 5.8 6.4 6.4 5.5 4.9 4.8 5.1 5.3 3.7 3.8 4.1
7.7 7.2 7.0 6.0 5.0 4.3 3.4 3.2 2.9 2.6 3.0 3.8 4.3 5.4 6.7 2.7 5.2 4.6 4.8 5.8 6.8 6.8 7.2 6.8 7.2 6.7 6.0 6.5 6.2 6.3 6.5 6.5 6.5 6.1 6.3 5.9 6.5 6.5 4.2 4.6 4.4 4.1 3.1 3.9 3.8
8.1 8.2 7.3 6.9 5.3 4.0 3.2 3.1 2.5 2.1 3.2 4.4 4.7 5.8 6.6 4.0 4.9 4.8 6.1 6.6 8.0 7.7 7.3 6.9 6.8 6.4 6.5 6.1 6.5 6.5 6.5 6.5 6.5 6.5 6.3 5.9 6.5 6.5 4.2 3.7 3.9 3.2 2.9 4.7 4.4
8.0 8.3 8.2 7.2 6.4 4.2 3.2 2.7 1.6 2.3 3.0 4.4 4.7 5.2 6.9 7.4 5.4 5.5 6.4 7.5 7.8 7.7 7.3 8.7 6.7 5.8 6.2 6.5 6.5 6.5 6.5 6.5 6.5 6.5 6.5 6.5 6.5 6.5 4.5 5.0 5.0 4.0 3.3 3.5 3.9
8.0 7.9 8.0 7.6 6.8 4.7 3.3 2.5 2.2 2.8 5.1 6.7 7.8 7.2 6.8 6.3 8.0 8.2 8.0 8.2 7.4 7.1 7.0 6.9 5.2 6.5 6.5 6.5 6.5 6.5 6.5 6.5 6.5 6.5 6.5 6.5 6.5 6.5 5.1 4.9 4.8 3.4 2.9 3.0 4.2
8.1 8.1 7.9 7.6 6.3 4.7 3.3 2.4 6.1 6.0 5.9 7.0 7.2 6.8 6.8 7.4 7.4 8.1 7.2 7.2 7.3 6.9 6.5 5.8 6.5 6.5 6.5 6.5 6.5 6.5 6.5 6.5 6.5 6.5 6.5 6.5 6.5 6.5 6.2 5.3 5.6 3.4 2.9 2.4 4.3
8.0 7.9 7.9 7.5 6.1 4.5 4.1 4.6 7.8 7.5 6.1 8.0 7.0 6.6 7.4 7.0 7.2 7.6 7.2 6.8 6.5 6.5 6.5 6.5 6.5 6.5 6.5 6.5 6.5 6.5 6.5 6.5 6.5 6.5 6.5 6.5 6.5 6.5 6.5 6.4 5.1 5.3 3.0 2.5 3.8
7.9 7.8 7.8 7.1 5.7 4.5 6.1 6.8 8.2 7.5 6.2 7.0 7.8 7.7 7.3 6.9 7.0 6.8 6.8 6.4 6.5 6.5 6.5 6.5 6.5 6.5 6.5 6.5 6.5 6.5 6.5 6.5 6.5 6.5 6.5 6.5 6.5 6.5 6.5 6.2 5.0 4.9 4.1 3.3 4.7
8.1 7.8 7.7 7.2 5.5 5.3 6.0 8.3 7.9 6.9 6.5 6.5 6.7 7.2 7.6 7.4 6.5 7.5 7.0 6.3 6.5 6.5 6.5 6.5 6.5 6.5 6.5 6.5 6.5 6.5 6.5 6.5 6.5 6.5 6.5 6.5 6.5 6.5 6.5 6.5 6.5 5.8 4.3 3.3 5.1
8.0 7.8 7.7 7.5 6.2 5.3 7.4 7.6 8.4 6.7 6.5 6.5 6.6 8.0 7.5 6.8 6.7 6.9 7.2 6.5 6.5 6.5 6.5 6.5 6.5 6.5 6.5 6.5 6.5 6.5 6.5 6.5 6.5 6.5 6.5 6.5 6.5 6.5 6.5 6.5 6.5 6.5 4.5 2.9 4.9
7.7 7.5 7.7 7.1 6.2 6.4 8.2 7.1 6.5 6.5 6.5 6.5 6.7 6.5 6.5 6.6 6.6 6.7 6.4 6.6 6.5 6.5 6.5 6.5 6.1 6.5 6.5 6.5 6.5 6.5 6.5 6.5 6.5 6.5 6.5 6.5 6.5 6.5 6.5 6.5 6.5 6.5 5.7 3.0 5.1
7.8 7.7 7.8 8.1 6.2 7.7 8.1 7.3 6.5 6.5 6.5 6.5 6.5 6.5 6.5 6.5 6.5 6.5 6.5 6.5 6.5 6.5 6.5 6.5 6.5 6.5 6.6 6.5 6.5 6.5 6.5 6.5 6.5 6.5 6.5 6.5 6.5 6.5 6.5 6.5 6.5 6.5 5.3 3.1 5.0
7.3 8.0 7.2 7.8 7.8 8.2 8.7 6.6 6.5 6.5 6.5 6.5 6.5 6.5 6.5 6.5 6.5 6.5 6.5 6.5 6.5 6.5 6.5 6.5 6.5 6.5 6.5 6.5 6.5 6.5 6.5 6.5 6.5 6.5 6.5 6.5 6.5 6.5 6.5 6.5 5.6 4.9 2.6 3.8 4.3
6.9 6.6 6.8 6.0 7.3 7.6 7.0 6.5 6.5 6.5 6.5 6.5 6.5 6.5 6.5 6.5 6.5 6.5 6.5 6.5 6.5 6.5 6.5 6.5 6.5 6.5 6.5 6.5 6.5 6.5 6.5 6.5 6.5 6.5 6.5 6.5 6.5 6.5 6.5 6.5 6.5 6.4 4.7 3.8 4.3
6.6 6.4 7.0 7.5 7.7 6.9 6.5 6.5 6.5 6.5 6.5 6.5 6.5 6.5 6.5 6.5 6.5 6.5 6.5 6.5 6.5 6.5 6.5 6.5 6.5 6.5 6.5 6.6 6.5 6.5 6.5 6.5 6.5 6.5 6.5 6.5 6.5 6.5 6.5 6.5 6.5 6.5 6.4 4.7 3.5
7.0 7.0 6.4 6.8 6.4 6.3 6.5 6.5 6.5 7.0 6.9 6.5 6.5 6.5 6.5 6.5 6.5 6.5 6.5 6.5 6.5 6.5 6.5 6.5 6.5 6.5 6.5 6.5 6.5 6.5 6.5 6.5 6.5 6.5 6.5 6.5 6.5 6.5 6.5 6.5 6.5 6.5 4.8 4.1 3.5
6.9 6.5 5.2 7.8 6.4 6.5 6.5 6.5 6.8 6.6 7.1 6.5 6.5 6.5 6.5 6.5 6.5 6.5 6.5 6.5 6.4 6.5 6.5 6.5 6.5 6.5 6.5 6.5 6.5 6.5 6.5 6.5 6.5 6.5 6.5 6.5 6.5 6.5 6.5 6.5 6.5 6.6 4.5 4.7 4.7
6.8 6.8 6.9 6.2 6.5 6.5 6.5 6.5 6.6 6.5 6.5 6.5 6.5 6.5 6.5 6.5 6.5 6.5 6.5 6.5 6.3 6.5 6.5 6.5 6.5 6.5 6.5 6.5 6.5 6.5 6.5 6.5 6.5 6.5 6.5 6.5 6.5 6.5 6.5 6.5 6.2 6.3 4.8 4.6 4.7
6.3 6.5 5.6 4.4 5.5 6.5 6.5 6.5 6.5 6.9 6.5 6.6 6.5 6.5 6.5 6.5 6.5 6.5 6.5 6.5 6.5 6.5 6.6 6.5 6.5 6.5 6.5 6.5 6.5 6.5 6.5 6.5 6.5 6.5 6.5 6.5 6.5 6.5 6.5 6.5 6.5 6.3 5.8 5.7 6.0
6.0 6.5 6.5 6.5 6.5 6.5 6.5 6.5 6.5 6.5 6.6 6.6 6.5 6.5 6.5 6.5 6.5 6.5 6.5 6.5 6.6 6.7 6.5 6.5 6.5 6.5 6.5 6.5 6.5 6.5 6.5 6.5 6.5 6.5 6.5 6.5 6.5 6.5 6.5 6.5 6.4 6.6 6.8 6.7 6.7
6.7 6.7 6.2 6.8 6.9 6.5 6.5 6.5 6.5 6.5 6.5 6.5 6.5 6.5 6.5 6.5 6.5 6.5 6.5 6.5 6.5 6.5 6.5 6.5 6.5 6.5 6.5 6.5 6.5 6.5 6.5 6.5 6.5 6.5 6.5 6.5 6.5 6.5 6.5 6.3 6.5 6.5 6.7 6.8 7.0
6.6 6.7 7.2 6.6 6.5 6.5 6.5 6.5 6.5 6.5 6.4 6.7 6.5 6.5 6.5 6.5 6.2 6.2 6.1 5.9 6.3 6.5 6.5 6.5 6.5 6.5 6.5 6.5 6.5 6.5 6.5 6.5 6.5 6.5 6.5 6.5 6.5 6.5 6.5 6.5 6.5 6.3 6.5 6.8 6.8
Wind_Speed
12 14 15 15 15 17 19 21 20 22 23 24 26 26 29 29 30 8 9 9 8 9 3 5 5 7 6 5 8 4 10 12 16 15 20 15 3 3 6 4 4 5 8 9 14
13 13 15 18 18 18 19 20 22 24 24 25 25 26 27 30 14 13 12 7 9 7 3 7 8 7 5 5 5 9 10 15 12 17 18 12 5 7 4 6 5 1 9 14 14
15 15 16 17 19 20 20 20 21 24 25 24 24 25 27 27 7 4 8 13 9 9 5 6 7 9 9 9 9 10 19 15 16 21 18 11 12 6 3 4 4 6 10 13 8
16 16 17 19 18 20 21 22 23 24 26 25 24 24 28 4 4 2 13 10 7 6 4 3 5 4 5 12 14 17 20 20 20 22 23 17 7 9 4 6 3 4 6 12 8
15 17 19 21 21 21 21 22 25 26 26 25 22 19 10 4 11 12 9 8 8 4 6 8 7 7 9 9 11 17 18 20 21 21 23 17 16 9 9 8 6 5 9 9 9
15 17 18 21 23 24 24 25 27 28 26 24 21 14 5 10 8 11 11 6 9 4 6 6 6 10 12 14 16 16 18 20 19 20 15 18 18 4 10 7 9 9 11 10 10
16 17 19 21 23 26 27 28 31 31 27 24 18 7 8 20 5 22 18 7 9 7 5 8 5 5 9 11 14 18 17 17 18 17 12 16 15 15 11 10 12 12 10 12 11
18 18 17 21 22 25 29 32 33 33 29 24 9 4 8 10 17 13 12 10 7 9 7 10 8 6 4 7 11 10 13 15 13 11 15 7 18 12 12 9 13 12 9 13 11
18 17 19 21 23 27 31 36 40 38 23 14 4 5 9 12 5 13 15 5 6 6 6 11 6 5 4 4 5 6 9 12 17 14 16 18 20 17 13 13 9 5 10 11 11
17 16 19 21 23 28 32 40 38 19 10 9 6 5 8 7 3 6 6 4 3 4 4 2 3 4 2 2 8 4 7 9 14 22 17 21 23 18 12 9 11 9 9 9 13
16 18 18 21 24 28 21 7 5 3 5 7 6 9 16 10 15 4 11 5 5 3 4 6 5 8 8 10 14 13 15 19 18 17 16 21 21 19 10 7 10 10 10 10 15
15 17 18 20 25 27 13 3 7 6 10 15 22 24 22 14 13 12 7 4 3 6 6 4 6 7 11 15 14 13 18 23 23 20 16 14 25 10 9 8 11 15 11 11 11
15 16 17 19 24 13 7 11 10 7 4 16 12 11 10 12 12 13 9 6 6 5 7 10 7 5 12 18 15 14 17 19 19 20 24 18 17 5 7 6 9 12 16 10 19
16 14 16 20 9 8 6 19 20 6 4 8 6 6 10 4 6 10 9 8 3 0 3 3 4 10 15 17 13 11 11 23 17 12 9 19 13 7 10 16 15 13 13 12 18
16 14 13 11 7 4 8 22 14 3 5 8 8 10 10 8 4 5 5 5 8 7 5 6 4 5 14 17 16 9 15 22 7 9 13 22 12 8 9 10 13 16 13 13 21
16 14 11 9 3 8 17 18 4 1 8 8 9 10 10 11 4 5 5 3 1 5 9 11 7 5 2 11 8 8 15 6 7 4 8 18 14 8 10 9 9 16 16 14 19
16 14 8 11 5 17 17 6 2 6 10 10 8 16 17 7 12 10 10 7 5 3 5 6 13 12 7 7 8 9 9 1 3 4 6 9 14 14 9 17 13 4 12 12 19
13 14 9 10 17 13 7 3 9 9 13 9 6 5 3 4 10 8 12 6 7 5 2 2 5 5 11 11 5 12 6 4 5 3 3 13 7 12 13 19 10 7 10 15 19
9 5 6 7 19 5 2 6 5 8 7 13 11 6 1 11 10 5 10 4 4 11 6 3 3 2 5 9 14 5 8 5 8 5 4 4 6 12 14 19 7 8 9 10 16
0 4 8 17 17 3 5 14 12 11 17 17 7 5 3 6 4 3 4 4 3 7 3 0 5 5 1 11 10 8 3 3 3 3 3 6 7 6 6 8 8 6 6 6 11
2 4 5 19 5 4 10 10 11 20 20 7 12 9 9 10 9 6 6 2 1 5 6 5 2 1 3 6 6 7 4 6 2 4 3 3 4 4 5 5 9 9 8 8 10
3 4 5 5 6 3 14 7 9 24 24 17 11 8 8 9 8 7 4 5 5 4 6 1 3 5 11 11 14 13 11 11 4 4 5 4 6 15 4 8 9 9 8 7 7
2 4 6 3 8 12 8 15 21 20 20 12 10 9 8 7 4 6 7 7 7 4 4 3 3 4 6 5 9 4 12 15 9 4 6 2 4 11 5 7 10 13 10 8 7
1 3 4 3 1 7 12 15 17 17 23 19 16 14 11 8 6 5 2 5 4 4 6 2 4 6 6 11 3 4 8 16 17 3 5 10 5 6 16 14 16 12 14 16 15
3 4 3 3 5 12 10 1 10 17 17 16 16 12 12 8 7 5 5 8 4 10 4 3 4 6 11 14 11 12 14 15 22 17 5 6 7 6 7 18 10 12 15 17 16
3 2 3 3 7 5 9 7 15 15 8 9 11 8 7 7 7 9 1 4 3 3 4 4 3 3 8 9 7 15 17 15 17 20 17 18 18 2 5 5 6 12 15 16 15
2 4 3 4 5 5 3 4 9 10 8 8 4 9 6 9 6 3 2 4 5 4 5 3 2 3 3 7 12 8 7 12 10 9 14 10 7 5 7 7 8 9 12 13 13
Wind_Direction
346 341 336 333 335 332 334 334 332 328 326 324 324 328 326 325 323 309 261 228 185 231 262 255 260 227 232 249 233 264 246 245 249 257 264 290 234 210 187 167 156 183 195 151 147
345 342 337 332 333 331 332 330 326 322 321 321 323 326 324 327 314 279 234 210 217 195 219 239 254 224 219 231 231 222 248 238 251 263 270 286 304 218 170 219 201 278 94 133 147
340 335 332 330 331 329 328 326 319 317 316 317 321 325 323 327 303 232 185 192 206 190 233 253 258 259 219 224 245 244 245 258 261 266 271 298 301 282 215 233 183 136 177 155 160
341 337 337 338 331 331 326 319 314 313 312 316 321 326 321 300 277 96 194 210 203 201 222 212 239 248 233 227 227 242 246 249 257 265 271 276 274 291 263 232 213 215 162 165 162
340 339 336 332 330 325 319 314 309 309 307 311 316 323 328 270 252 264 230 215 207 177 217 218 224 237 248 249 241 245 253 253 255 253 260 270 273 250 272 274 307 331 127 153 156
332 331 334 330 324 321 318 311 306 303 303 306 310 315 252 262 258 284 340 317 274 251 274 243 234 231 271 259 243 252 253 254 261 262 257 258 264 260 260 241 256 255 175 179 170
327 328 332 329 325 321 315 309 303 299 299 302 303 281 252 249 291 317 314 288 282 288 290 295 323 350 324 304 262 263 264 273 268 265 269 252 265 260 252 237 233 229 191 179 178
326 324 326 322 321 317 311 305 300 295 292 290 291 246 255 259 253 263 274 264 275 248 248 273 273 268 241 290 293 289 268 260 268 266 273 227 256 246 247 234 243 235 199 177 171
326 326 324 322 320 315 310 308 298 289 282 260 218 200 260 291 208 242 235 246 266 288 230 254 323 232 315 298 293 246 251 273 275 256 259 259 263 249 235 242 242 204 164 175 164
325 325 325 322 320 314 316 311 290 291 261 207 228 223 257 240 104 341 309 159 316 266 291 104 284 232 178 200 230 264 274 269 259 260 262 255 256 255 235 212 207 199 200 178 167
318 322 327 326 319 317 327 331 8 1 21 260 240 232 295 305 331 292 290 208 179 280 248 226 212 236 223 236 253 278 282 273 270 268 283 279 251 241 215 218 213 213 205 177 176
315 324 327 323 317 316 310 283 344 275 299 266 257 262 266 275 284 276 252 259 192 230 246 241 243 257 276 239 253 273 265 264 280 286 282 276 272 228 212 216 218 206 204 184 162
315 323 328 322 315 316 300 280 308 61 289 291 240 229 227 213 232 248 187 214 223 260 249 239 264 261 274 256 250 258 274 261 268 295 301 283 280 242 262 255 259 207 196 180 163
313 319 325 328 308 328 287 345 343 77 306 267 213 216 165 177 244 223 193 168 125 142 33 307 304 274 266 255 239 259 303 291 278 288 283 311 289 282 249 249 247 244 192 181 164
303 301 310 320 293 311 315 329 330 54 320 178 157 144 164 192 144 182 160 178 158 157 108 252 235 310 243 249 233 255 292 303 346 337 316 286 279 260 266 282 243 233 184 166 162
296 288 306 303 246 256 311 321 349 198 245 214 146 180 179 217 225 129 153 103 77 157 203 239 267 166 240 272 234 287 287 294 353 312 259 270 267 259 255 250 298 217 183 169 160
287 280 287 276 265 317 319 318 221 231 286 178 177 174 196 200 221 154 165 154 150 117 240 270 246 232 182 260 237 242 280 236 229 224 244 255 255 246 259 251 247 159 159 157 155
308 298 265 259 267 273 304 247 223 227 244 307 132 147 203 301 284 178 152 163 217 178 335 271 322 167 181 202 179 219 196 195 183 233 225 217 243 236 224 248 238 136 147 146 155
339 291 255 246 250 246 240 230 216 228 304 337 318 231 103 263 232 128 172 152 167 182 182 307 239 56 195 205 202 195 208 273 310 323 270 269 209 275 282 229 169 130 116 156 156
215 284 260 245 227 181 222 234 241 256 318 339 310 7 334 319 352 241 81 13 82 25 340 56 301 303 140 195 234 258 18 200 211 253 242 279 260 211 206 140 151 149 125 157 166
262 267 245 213 160 193 223 226 256 270 280 295 333 320 318 334 349 327 94 33 60 86 349 17 209 327 113 191 197 204 211 201 246 261 274 297 271 243 287 255 125 122 104 96 132
232 242 253 134 191 200 236 235 245 273 296 301 299 288 304 329 317 320 56 96 174 143 137 100 275 252 246 203 217 198 233 211 196 192 251 180 281 299 323 14 111 123 120 106 124
255 264 263 148 211 219 243 233 247 269 276 286 282 306 298 278 292 315 42 119 142 105 138 186 245 289 302 220 200 219 235 228 228 277 234 280 253 273 250 208 59 65 57 51 49
228 276 252 118 213 238 221 239 240 236 254 264 280 299 286 283 247 269 313 105 111 96 115 319 235 236 273 310 237 230 288 215 210 221 256 231 163 349 325 35 24 39 41 55 44
203 253 261 254 214 235 244 260 268 254 245 239 255 253 270 284 286 291 296 146 170 139 172 208 261 268 283 294 296 306 282 282 216 214 243 288 244 93 301 30 21 57 59 52 45
210 210 342 296 295 310 246 243 245 250 276 289 280 284 316 269 269 300 354 45 108 202 213 202 269 306 292 263 354 312 283 258 235 215 234 260 296 320 7 334 22 56 65 59 46
189 285 298 298 326 322 302 299 288 272 252 206 309 322 313 324 355 325 233 227 184 176 194 243 254 356 274 347 330 270 258 246 184 185 220 218 220 171 134 120 61 50 61 68 66